Tracking 31027 objects as of 19-Jul-2025
HD Live streaming from Space Station
objects crossing your sky now

SL-16 DEB

Track SL-16 DEB now!
10-day predictions


NORAD ID: 42239
Int'l Code: 1993-016CT
Perigee: 701.3 km
Apogee: 831.1 km
Inclination: 71.1 °
Period: 100.0 minutes
Semi major axis: 7137 km
RCS: Unknown
Launch date: March 26, 1993
Source: Commonwealth of Independent States (former USSR) (CIS)
Launch site: PLESETSK MISSILE AND SPACE COMPLEX (PKMTR)

Note: This is SATELLITE DEBRIS
Your satellite tracking list
FLOCK 4Q 34
Track 1 satellite(s)




NASA's NSSDC Master Catalog

Two Line Element Set (TLE):
1 42239U 93016CT  25199.78981471  .00005519  00000-0  16882-2 0  9997
2 42239  71.1254 228.1548 0090945  46.7676 314.1007 14.39826346886379
Source of the keplerian elements: AFSPC